Fryeburg, ME

11:24 PM EST on November 22, 2017 (GMT -0500)
Eastern Slopes Regional

Weather History for KIZG - November, 2013

Change the Weather History Date:

Thursday, November 7, 2013

  Actual Average Record
Temperature  
Mean Temperature 47 °F -  
Max Temperature 55 °F 46 °F 64 °F (2011)
Min Temperature 39 °F 26 °F 16 °F (2012)
Degree Days  
Heating Degree Days 18    
Moisture  
Dew Point 42 °F    
Average Humidity 74    
Maximum Humidity 97    
Minimum Humidity 49    
Precipitation  
Precipitation 0.08 in - - ()
Sea Level Pressure  
Sea Level Pressure 29.76 in    
Wind  
Wind Speed 5 mph (West)    
Max Wind Speed 17 mph    
Max Gust Speed 30 mph    
Visibility 10 miles    
Events Rain    
Averages and records for this station are not official NWS values.
T = Trace of Precipitation, MM = Missing Value Source: NWS Daily Summary

Daily Weather History Graph

Daily Weather History Graph

Search for Another Location

Airport or City:

Trip Planner

Search our weather history database for the weather conditions in past years. The results will help you decide how hot, cold, wet, or windy it might be!

Date:

Astronomy

Nov. 07, 2013 Rise Set
Actual Time 6:28 AM EST 4:25 PM EST
Civil Twilight 5:57 AM EST 4:56 PM EST
Nautical Twilight 5:23 AM EST 5:30 PM EST
Astronomical Twilight 4:49 AM EST 6:04 PM EST
Moon 10:36 AM EST (11/7) 8:32 PM EST (11/7)
Length of Visible Light 10h 58m
Length of Day
9h 57m
Waxing Crescent, 22% of the Moon is Illuminated
Nov 7
Waxing Crescent
Nov 10
First Quarter
Nov 17
Full
Nov 25
Last Quarter
Dec 2
New

Hourly Weather History & Observations

Time (EST) Temp. Windchill Dew Point Humidity Pressure Visibility Wind Dir Wind Speed Gust Speed Precip Events Conditions
12:54 AM 52.0 °F - 42.1 °F 69% 29.91 in 10.0 mi South 5.8 mph - N/A   Clear
1:54 AM 52.0 °F - 43.0 °F 71% 29.91 in 10.0 mi Variable 3.5 mph - N/A   Mostly Cloudy
2:54 AM 53.1 °F - 44.1 °F 71% 29.88 in 10.0 mi Variable 3.5 mph - N/A   Mostly Cloudy
3:54 AM 54.0 °F - 45.0 °F 72% 29.84 in 10.0 mi SW 4.6 mph - N/A   Mostly Cloudy
4:54 AM 55.0 °F - 46.0 °F 72% 29.83 in 10.0 mi SW 4.6 mph - N/A   Overcast
5:54 AM 54.0 °F - 46.0 °F 75% 29.79 in 10.0 mi WSW 6.9 mph - N/A   Overcast
6:54 AM 54.0 °F - 46.0 °F 75% 29.77 in 10.0 mi Calm Calm - N/A   Overcast
7:54 AM 53.1 °F - 46.9 °F 80% 29.78 in 7.0 mi WSW 3.5 mph - 0.00 in Rain Light Rain
8:54 AM 52.0 °F - 50.0 °F 93% 29.76 in 9.0 mi Calm Calm - 0.01 in Rain Light Rain
9:54 AM 53.1 °F - 51.1 °F 93% 29.73 in 10.0 mi Calm Calm - 0.01 in Rain Light Rain
10:20 AM 54.0 °F - 53.1 °F 97% 29.72 in 10.0 mi Calm Calm - 0.00 in Rain Light Rain
10:50 AM 55.4 °F - 53.6 °F 94% 29.70 in 10.0 mi Calm Calm - 0.01 in Rain Light Rain
10:54 AM 55.0 °F - 53.1 °F 93% 29.70 in 10.0 mi Calm Calm - 0.01 in Rain Light Rain
11:54 AM 55.9 °F - 53.1 °F 90% 29.67 in 10.0 mi SW 6.9 mph - 0.02 in Rain Light Rain
12:54 PM 55.0 °F - 52.0 °F 89% 29.66 in 10.0 mi West 5.8 mph - 0.03 in Rain Light Rain
1:54 PM 54.0 °F - 50.0 °F 86% 29.66 in 10.0 mi WSW 4.6 mph - 0.00 in   Overcast
2:54 PM 53.1 °F - 46.0 °F 77% 29.68 in 10.0 mi WNW 10.4 mph - N/A   Overcast
3:54 PM 50.0 °F - 39.9 °F 68% 29.69 in 10.0 mi WNW 8.1 mph - N/A   Mostly Cloudy
4:54 PM 46.9 °F - 36.0 °F 66% 29.72 in 10.0 mi NW 8.1 mph 20.7 mph N/A   Clear
5:54 PM 46.0 °F 41.9 °F 35.1 °F 66% 29.74 in 10.0 mi West 8.1 mph - N/A   Partly Cloudy
6:54 PM 44.1 °F 39.5 °F 32.0 °F 63% 29.76 in 10.0 mi West 8.1 mph 17.3 mph N/A   Partly Cloudy
7:54 PM 42.1 °F 35.7 °F 28.0 °F 58% 29.78 in 10.0 mi WNW 11.5 mph 24.2 mph N/A   Overcast
8:54 PM 42.1 °F 39.2 °F 27.0 °F 55% 29.78 in 10.0 mi WNW 4.6 mph - N/A   Overcast
9:54 PM 41.0 °F 34.7 °F 25.0 °F 53% 29.77 in 10.0 mi West 10.4 mph 19.6 mph N/A   Overcast
10:54 PM 39.9 °F 31.1 °F 21.9 °F 49% 29.77 in 10.0 mi WNW 17.3 mph 29.9 mph N/A   Overcast
11:54 PM 39.0 °F 31.8 °F 21.9 °F 50% 29.79 in 10.0 mi West 11.5 mph 23.0 mph N/A   Mostly Cloudy